Weather History for Fargo, ND

Change the Weather History Date:

Tuesday, March 6, 2012

  Actual Average Record
Temperature  
Mean Temperature 35 °F 23 °F  
Max Temperature 38 °F 31 °F 63 °F (2000)
Min Temperature 31 °F 15 °F -20 °F (1884)
Degree Days  
Heating Degree Days 30 42  
Month to date heating degree days 266 261  
Since 1 July heating degree days 5693 6939  
Cooling Degree Days 0 0  
Month to date cooling degree days 0 0  
Year to date cooling degree days 0 0  
Moisture  
Dew Point 27 °F    
Average Humidity 76    
Maximum Humidity 82    
Minimum Humidity 69    
Precipitation  
Precipitation 0.00 in 0.04 in 0.51 in (1944)
Month to date precipitation 0.05 0.23  
Year to date precipitation 1.58 1.54  
Snow  
Snow 0.00 in 0.40 in 4.90 in (1944)
Month to date snowfall 1.7 2.2  
Since 1 July snowfall 26.1 40.2  
Snow Depth 6.00 in    
Sea Level Pressure  
Sea Level Pressure 29.55 in    
Wind  
Wind Speed 13 mph (SSE)    
Max Wind Speed 23 mph    
Max Gust Speed 30 mph    
Visibility 9 miles    
Events      
T = Trace of Precipitation, MM = Missing Value Source: NWS Daily Summary

Daily Weather History Graph

Daily Weather History Graph

Search for Another Location

Airport:

Trip Planner

Search our weather history database for the weather conditions in past years. The results will help you decide how hot, cold, wet, or windy it might be!

Date:

Astronomy

Mar. 06, 2012 Rise Set
Actual Time 6:56 AM CST 6:20 PM CST
Civil Twilight 6:26 AM CST 6:51 PM CST
Nautical Twilight 5:51 AM CST 7:26 PM CST
Astronomical Twilight 5:15 AM CST 8:02 PM CST
Moon 4:45 PM CST (3/6) 5:38 AM CST (3/6)
Length of Visible Light 12h 24m
Length of Day
11h 24m
Waxing Gibbous, 96% of the Moon is Illuminated
Mar 6
Waxing Gibbous
Mar 8
Full
Mar 14
Last Quarter
Mar 22
New
Mar 30
First Quarter

Hourly Weather History & Observations

Time (CST) Temp. Windchill Dew Point Humidity Pressure Visibility Wind Dir Wind Speed Gust Speed Precip Events Conditions
12:53 AM 32.0 °F 23.0 °F 26.1 °F 79% 29.67 in 8.0 mi SSE 11.5 mph - N/A   Clear
1:53 AM 32.0 °F 22.5 °F 26.1 °F 79% 29.65 in 9.0 mi SSE 12.7 mph - N/A   Clear
2:53 AM 33.1 °F 23.9 °F 26.1 °F 75% 29.62 in 10.0 mi SSE 12.7 mph - N/A   Clear
3:53 AM 32.0 °F 22.5 °F 26.6 °F 80% 29.55 in 10.0 mi SSE 12.7 mph - N/A   Clear
4:53 AM 33.1 °F 24.4 °F 26.1 °F 75% 29.55 in 10.0 mi SSE 11.5 mph - N/A   Clear
5:53 AM 33.1 °F 23.4 °F 26.1 °F 75% 29.53 in 10.0 mi SSE 13.8 mph - N/A   Clear
6:53 AM 33.1 °F 23.9 °F 25.0 °F 72% 29.52 in 10.0 mi SSE 12.7 mph - N/A   Clear
7:53 AM 32.0 °F 21.6 °F 25.0 °F 75% 29.53 in 10.0 mi SSE 15.0 mph - N/A   Clear
8:53 AM 33.1 °F 22.6 °F 25.0 °F 72% 29.52 in 10.0 mi SSE 16.1 mph - N/A   Clear
9:53 AM 34.0 °F 22.4 °F 25.0 °F 70% 29.51 in 10.0 mi SSE 20.7 mph 27.6 mph N/A   Clear
10:53 AM 35.1 °F 24.1 °F 26.1 °F 70% 29.49 in 10.0 mi SSE 19.6 mph 25.3 mph N/A   Clear
11:53 AM 37.0 °F 28.1 °F 28.0 °F 70% 29.48 in 10.0 mi South 15.0 mph - N/A   Clear
12:53 PM 37.0 °F 28.1 °F 28.0 °F 70% 29.47 in 10.0 mi South 15.0 mph - N/A   Clear
1:53 PM 37.9 °F 29.2 °F 28.9 °F 70% 29.46 in 10.0 mi SSE 15.0 mph 23.0 mph N/A   Clear
2:53 PM 37.9 °F 30.0 °F 28.9 °F 70% 29.49 in 10.0 mi South 12.7 mph - N/A   Clear
3:53 PM 37.9 °F 30.0 °F 28.9 °F 70% 29.47 in 10.0 mi SSE 12.7 mph - N/A   Clear
4:53 PM 37.9 °F 30.5 °F 30.0 °F 73% 29.48 in 9.0 mi SSE 11.5 mph - N/A   Clear
5:53 PM 37.9 °F 31.5 °F 30.0 °F 73% 29.47 in 10.0 mi SSE 9.2 mph 18.4 mph N/A   Clear
6:53 PM 37.0 °F 31.6 °F 30.0 °F 76% 29.53 in 10.0 mi SSW 6.9 mph - N/A   Clear
7:53 PM 35.6 °F 29.9 °F 30.2 °F 81% 29.53 in 8.0 mi West 6.9 mph - N/A   Clear
8:53 PM 34.0 °F 26.6 °F 28.9 °F 82% 29.59 in 5.0 mi NNW 9.2 mph - N/A   Haze
9:41 PM 33.8 °F 23.9 °F 28.4 °F 81% 29.58 in 5.0 mi NNW 15.0 mph - N/A   Haze
9:53 PM 33.1 °F 23.4 °F 28.0 °F 82% 29.61 in 5.0 mi North 13.8 mph - N/A   Haze
10:42 PM 32.0 °F 21.6 °F 26.6 °F 80% 29.60 in 4.0 mi North 15.0 mph - N/A   Haze
10:53 PM 32.0 °F 20.8 °F 27.0 °F 82% 29.64 in 5.0 mi North 17.3 mph - N/A   Haze
11:53 PM 32.0 °F 22.5 °F 27.0 °F 82% 29.66 in 5.0 mi North 12.7 mph - N/A   Haze